Location: Aix-en-Ergny
(50.5839°N, 1.9996°E)
Time: 07:52:21
(UTC+00:00)

Meteor 1-21 - Pass Details

Date: 23 October 2019
Orbit: 844 x 888 km, 81.2° (Epoch: 16 November)

Event Time Altitude Azimuth Distance (km) Brightness Sun altitude
Exits shadow 04:13:52 46° 271° (W) 1,142 4.4 -21.8°
Maximum altitude 04:14:26 47° 289° (WNW) 1,118 4.4 -21.7°
Drops below altitude 10° 04:19:55 10° 3° (N) 2,509 6.8 -20.8°
Sets 04:22:29 0° 10° (N) 3,457 7.6 -20.4°
